Location: Bjelajci
(45.0103°N, 16.1758°E)
Time: 09:47:34
(UTC+00:00)

Cosmos 407 Rocket - Pass Details

Date: 14 July 2020
Orbit: 744 x 786 km, 74.0° (Epoch: 07 August)

Event Time Altitude Azimuth Distance (km) Brightness Sun altitude
Exits shadow 00:55:14 34° 217° (SW) 1,279 4.1 -18.5°
Maximum altitude 00:57:35 70° 293° (WNW) 837 3.6 -18.3°
Drops below altitude 10° 01:02:57 10° 17° (NNE) 2,356 7.2 -17.8°
Sets 01:05:22 0° 20° (NNE) 3,287 8.4 -17.6°
